Location: Newark
(41.6500°N, 71.4833°W)
Time: 05:40:58
(UTC+00:00)

A-11 Canister half - Visible Passes

Search period start: 24 January 2020 00:00
Search period end: 03 February 2020 00:00
Orbit: 1525 x 1684 km, 47.3° (Epoch: 23 January)

Date Brightness Start Highest point End Pass type
(mag) Time Alt. Az. Time Alt. Az. Time Alt. Az.
24 Jan 9.1 01:00:15 10° W 01:09:39 64° N 01:09:57 64° N visible
24 Jan 10.8 03:06:00 10° WNW 03:08:15 20° WNW 03:08:15 20° WNW visible
24 Jan 9.1 22:33:11 10° SW 22:42:29 79° SSE 22:51:17 13° ENE visible
25 Jan 9.1 00:38:35 10° W 00:47:57 65° N 00:49:36 57° NE visible
25 Jan 10.5 02:44:21 10° WNW 02:47:53 26° WNW 02:47:53 26° WNW visible
25 Jan 9.1 22:11:35 10° SW 22:20:52 76° SSE 22:30:24 10° ENE visible
26 Jan 9.1 00:16:54 10° W 00:26:16 65° N 00:29:13 47° NE visible
26 Jan 10.1 02:22:42 10° WNW 02:27:31 35° WNW 02:27:31 35° WNW visible
26 Jan 9.1 23:55:14 10° W 00:04:35 66° N 00:08:49 37° ENE visible
27 Jan 9.8 02:01:04 10° WNW 02:07:07 44° NW 02:07:07 44° NW visible
27 Jan 9.1 23:33:35 10° W 23:42:54 67° N 23:48:26 29° ENE visible
28 Jan 9.4 01:39:24 10° WNW 01:46:44 55° NW 01:46:44 55° NW visible
28 Jan 11.2 03:44:38 10° WNW 03:45:02 11° WNW 03:45:02 11° WNW visible
28 Jan 9.1 23:11:54 10° W 23:21:14 68° NNW 23:28:02 22° ENE visible
29 Jan 9.1 01:17:46 10° WNW 01:26:20 65° NNW 01:26:20 65° NNW visible
29 Jan 10.9 03:23:00 10° WNW 03:24:38 17° WNW 03:24:38 17° WNW visible
29 Jan 9.2 22:50:14 10° W 22:59:33 69° NNW 23:07:39 16° ENE visible
30 Jan 9.0 00:56:07 10° WNW 01:05:33 67° NNE 01:05:56 67° NNE visible
30 Jan 10.6 03:01:21 10° WNW 03:04:14 23° WNW 03:04:14 23° WNW visible
30 Jan 9.2 22:28:35 10° W 22:37:53 70° NNW 22:47:16 11° ENE visible
31 Jan 9.0 00:34:27 10° WNW 00:43:52 66° N 00:45:34 58° NE visible
31 Jan 10.3 02:39:43 10° WNW 02:43:52 30° WNW 02:43:52 30° WNW visible
01 Feb 9.1 00:12:48 10° WNW 00:22:11 65° N 00:25:12 46° ENE visible
01 Feb 9.9 02:18:05 10° WNW 02:23:31 40° WNW 02:23:31 40° WNW visible
01 Feb 9.1 23:51:09 10° WNW 00:00:30 65° N 00:04:52 36° ENE visible
02 Feb 9.5 01:56:27 10° WNW 02:03:11 52° WNW 02:03:11 52° WNW visible
02 Feb 9.1 23:29:29 10° WNW 23:38:49 64° N 23:44:34 27° E visible
